This demonstration page uses our WeatherBlox Daily Observations layout. Learn more.

Left ArrowRight Arrow

39.29038, -76.61219

Hourly Observations for August 9, 2020

Temp ( °F °C ) Dew Point ( °F °C ) Humidity (%) Winds ( mph kmh ) Pressure ( in mb ) Visibility ( mi km ) Precip ( " mm )
12:54 am 00:54 Mostly Clear 73 22.8 69 20.6 87 87 Calm 30.13 1020 10 16 0.00 0.00
1:54 am 01:54 Partly Cloudy 72 22.2 69 20.6 91 91 WSW 3 6 30.13 1020 10 16 0.00 0.00
2:54 am 02:54 Mostly Clear 73 22.8 69 20.6 87 87 Calm 30.12 1020 10 16 0.00 0.00
3:54 am 03:54 Mostly Clear 72 22.2 69 20.6 91 91 WSW 3 6 30.12 1020 10 16 0.00 0.00
4:54 am 04:54 Mostly Clear 72 22.2 69 20.6 91 91 Calm 30.12 1020 10 16 0.00 0.00
5:54 am 05:54 Mostly Clear 71 21.7 68 20 90 90 NW 3 6 30.12 1020 7 11 0.00 0.00
6:54 am 06:54 Partly Cloudy with Mist and Fog 72 22.2 69 20.6 91 91 Calm 30.13 1020 6 10 0.00 0.00
7:54 am 07:54 Partly Cloudy 76 24.4 71 21.7 85 85 Calm 30.14 1021 9 14 0.00 0.00
8:54 am 08:54 Mostly Cloudy 78 25.6 72 22.2 82 82 SSW 3 6 30.14 1021 10 16 0.00 0.00
9:54 am 09:54 Partly Cloudy 82 27.8 72 22.2 72 72 WSW 8 13 30.13 1020 10 16 0.00 0.00
10:54 am 10:54 Partly Cloudy 85 29.4 72 22.2 65 65 WSW 9 15 30.13 1020 10 16 0.00 0.00
11:54 am 11:54 Mostly Cloudy 86 30 72 22.2 63 63 SSW 3 6 30.11 1020 10 16 0.00 0.00
12:54 pm 12:54 Mostly Cloudy 89 31.7 70 21.1 53 53 SSW 6 9 30.10 1019 10 16 0.00 0.00
1:54 pm 13:54 Mostly Cloudy 89 31.7 71 21.7 55 55 VRB 5 7 30.09 1019 10 16 0.00 0.00
2:54 pm 14:54 Mostly Cloudy 91 32.8 71 21.7 52 52 WSW 8 13 30.06 1018 10 16 0.00 0.00
3:54 pm 15:54 Mostly Cloudy 90 32.2 71 21.7 54 54 SSW 6 9 30.05 1018 10 16 0.00 0.00
4:54 pm 16:54 Partly Cloudy 89 31.7 72 22.2 57 57 SSW 7 11 30.05 1018 10 16 0.00 0.00
5:54 pm 17:54 Partly Cloudy 89 31.7 73 22.8 59 59 VRB 5 7 30.04 1017 10 16 0.00 0.00
6:54 pm 18:54 Partly Cloudy 86 30 73 22.8 65 65 SSE 7 11 30.04 1017 10 16 0.00 0.00
7:54 pm 19:54 Mostly Sunny 84 28.9 73 22.8 70 70 S 5 7 30.04 1017 10 16 0.00 0.00
8:54 pm 20:54 Partly Cloudy 83 28.3 71 21.7 67 67 SSW 5 7 30.05 1018 10 16 0.00 0.00
9:54 pm 21:54 Mostly Clear 81 27.2 71 21.7 72 72 S 3 6 30.07 1018 10 16 0.00 0.00
10:54 pm 22:54 Mostly Clear 80 26.7 72 22.2 76 76 SSW 5 7 30.07 1018 10 16 0.00 0.00
11:54 pm 23:54 Mostly Clear 79 26.1 73 22.8 82 82 SSW 5 7 30.06 1018 10 16 0.00 0.00

Powered by AerisWeather